User: anonymous   Login
Location: Unspecified
(0.0000°N, 0.0000°E)
Time: 07:02:28
(UTC+01:00)
Language:

ARIANE DEB (SPELDA) - Orbit

View from above orbital plane
View from above orbital plane
View from above satellite
View from above satellite

Ground track
Ground track

The orbit data is extracted from the following two-line orbital elements,

1 27402U 02015D   14304.46134800  .00001604  00000-0  21187-2 0   961
2 27402 003.3670 192.5096 7104393 183.8490 017.7477 02.45969955110265
Epoch (UTC): 31 October 2014 11:04:20
Eccentricity: 0.7104393
inclination: 3.3670°
perigee height: 334 km
apogee height: 33272 km
right ascension of ascending node: 192.5096°
argument of perigee: 183.8490°
revolutions per day: 2.45969955
mean anomaly at epoch: 17.7477°
orbit number at epoch: 11026

The dashed part of the orbit path shows where the satellite is in the earth's shadow,  

DLR